{"data":{"norad_id":55165,"intl_designator":"2023-004AB","name":"ONEWEB-0624","alt_names":[],"object_type":"PAYLOAD","status":"ACTIVE","operator":null,"country":"UK","launch_date":"2023-01-10","launch_site_code":"AFETR","launch_vehicle":null,"mission":null,"orbit_class":"UNKNOWN","rcs_meters":null,"size_class":null,"mass_kg":null,"dimensions":null,"purposes":["comms"],"wikipedia_slug":null,"has_3d_model":false,"image_url":null,"decayed_at":null,"tle_current":{"epoch":"2026-05-25T02:29:07.704960Z","epoch_age_seconds":65392,"freshness":"FRESH","line1":"1 55165U 23004AB  26145.10356140  .00000361  00000+0  96105-3 0  9992","line2":"2 55165  87.8956 355.1802 0001882  88.1588 271.9756 13.12927641165047","mean_motion":13.12927641,"eccentricity":0.0001882,"inclination_deg":87.8956,"raan_deg":355.1802,"arg_perigee_deg":88.1588,"mean_anomaly_deg":271.9756,"bstar":0.00096105,"rev_number":16504,"period_min":109.67855006108,"perigee_km":1210.4264839418,"apogee_km":1213.2833569007,"semimajor_km":7589.9919204212,"source":"CELESTRAK","updated_at":"2026-05-25T13:38:22.644916Z"}}}